Location: Geçitköy
(36.7327°N, 29.8010°E)
Time: 18:40:16
(UTC+00:00)

Cosmos 676 Rocket - Pass Details

Date: 12 January 2026
Orbit: 750 x 779 km, 74.0° (Epoch: 10 February)

Event Time Altitude Azimuth Distance (km) Brightness Sun altitude
Rises 15:36:16 0° 350° (N) 3,212 7.1 -6.5°
Reaches altitude 10° 15:38:46 10° 358° (N) 2,286 6.3 -7.0°
Maximum altitude 15:43:38 40° 67° (ENE) 1,115 4.4 -7.9°
Drops below altitude 10° 15:48:29 10° 137° (SE) 2,290 6.2 -8.8°
Sets 15:51:00 0° 144° (SE) 3,217 7.1 -9.3°
